Flag for U.S.A. Weather past 2 weeks in Paterson, New Jersey, U.S.A.

Now
63 °F

Sunny.


Feels Like: 63 °F
Forecast: 52 / 64 °F
Wind: 15 mph from West

Location: Essex County Airport

Current Time: Apr 21, 2015 at 3:11:52 PM

Latest Report: Apr 21, 2015 at 1:53 PM


Visibility: 10 mi

Pressure: 29.68 "Hg

Humidity: 30%

Dew point: 31 °F

Location of PatersonLocation

Historic Weather in Paterson — Graph

°F

Paterson temperature yesterday

Maximum temperature yesterday: 56 °F (at 3:53 PM)
Minimum temperature yesterday: 45 °F (at 5:53 AM)
Average temperature yesterday: 51 °F

Past Weeks' High & Low Weather Summary

 TemperatureHumidityPressure
High81 °F (Apr 18, 4:53 PM)100% (Apr 21, 12:03 AM)30.50 "Hg (Apr 21, 12:03 AM)
Low33 °F (Apr 12, 5:53 AM)12% (Apr 15, 4:53 PM)29.57 "Hg (Apr 21, 3:53 AM)
Average53 °F59%30.13 "Hg
* Reported Apr 6 1:53 PM — Apr 21 1:53 PM, Paterson, Weather by CustomWeather, © 2015

Note: Actual official high and low records may vary slightly from our data, if they occured in-between our weather recording intervals... More about our weather records

Advertising

Paterson weather history for previous 24 hours

 ConditionsComfort  
Time TempWeatherWind HumidityBarometerVisibility
1:53 PM
Tue, Apr 21
63 °FSunny.15 mph30%29.68 "Hg10 mi
12:53 PM62 °FSunny.15 mph30%29.69 "Hg10 mi
11:53 AM61 °FPartly sunny.9 mph41%29.69 "Hg10 mi
10:53 AM60 °FPassing clouds.14 mph46%29.69 "Hg10 mi
9:53 AM57 °FBroken clouds.14 mph67%29.67 "Hg10 mi
8:53 AM56 °FLight rain. Cloudy.7 mph81%29.66 "Hg10 mi
7:53 AM55 °FLight rain. Mostly cloudy.8 mph96%29.63 "Hg7 mi
6:53 AM54 °FFog.3 mph97%29.61 "Hg5 mi
5:53 AM54 °FLight rain. Mostly cloudy.No wind97%29.58 "Hg10 mi
4:53 AM54 °FLight rain. Overcast.3 mph97%29.58 "Hg8 mi
3:53 AM55 °FLight rain. Overcast.3 mph93%29.57 "Hg9 mi
2:53 AM55 °FLight rain. Fog.3 mph96%29.62 "Hg6 mi
2:02 AM55 °FLight rain. Fog.No wind96%29.59 "Hg4 mi
1:53 AM55 °FLight rain. Fog.3 mph96%29.61 "Hg3 mi
1:02 AM54 °FFog.5 mph100%29.58 "Hg3 mi
12:53 AM54 °FFog.6 mph100%29.58 "Hg1 mi
12:03 AM54 °FLight rain. Fog.9 mph100%29.57 "Hg2 mi
10:53 PM
Mon, Apr 20
55 °FFog.8 mph96%29.62 "Hg1 mi
9:53 PM55 °FFog.7 mph96%29.64 "Hg1 mi
8:53 PM55 °FFog.8 mph96%29.63 "Hg1 mi
7:53 PM55 °FFog.6 mph96%29.66 "Hg1 mi
6:53 PM56 °FFog.8 mph97%29.66 "Hg1 mi
5:53 PM56 °FFog.9 mph97%29.68 "Hg6 mi
4:53 PM56 °FFog.8 mph97%29.67 "Hg3 mi
3:53 PM56 °FFog.10 mph97%29.68 "Hg2 mi
Weather by CustomWeather, © 2015

See weather overviewHow to use our weather pages